Regional Weather Roundup
Issued by NWS Kansas City/Pleasant Hill, MO

Home | Current Version | Previous Version | Graphics & Text | Print | Product List | Glossary Off
Versions: 1 2 3 4 5 6 7 8 9 10 11 12 13 14 15 16 17 18 19 20 21 22 23 24 25 26 27 28 29 30 31 32 33 34 35 36 37 38 39 40 41 42 43 44 45 46 47 48 49 50

000
ASUS43 KEAX 051011
RWREAX

WEATHER ROUNDUP FOR EASTERN KANSAS AND NORTHWEST MISSOURI
NATIONAL WEATHER SERVICE KANSAS CITY/PLEASANT HILL MO
500 AM CDT TUE MAY 05 2015

KSZ040-057-103>105-MOZ028-029-037-043-051100-
...KANSAS CITY METROPOLITAN AREA...

CITY           SKY/WX    TMP DP  RH WIND       PRES   REMARKS
K.C. INTL      CLOUDY    60  59  96 NE5       30.08R FOG
K.C. DOWNTOWN  MOCLDY    64  60  87 S6        30.07R
LEES SUMMIT    MOCLDY    61  59  93 SE3       30.09R
OLATHE - IXD   MOCLDY    60  59  96 SE6       30.09R
OLATHE - OJC   MOCLDY    60  59  96 SE5       30.08R
LAWRENCE       PTCLDY    60  58  92 SE3       30.07S

$$

MOZ001>008-011>017-020>025-030>033-038>040-044>046-053-054-051100-
...NORTHERN AND CENTRAL MISSOURI...

CITY           SKY/WX    TMP DP  RH WIND       PRES   REMARKS
ST. JOSEPH     FOG       57  56  96 NW3       30.07S VSB 1/2
MOSBY          PTSUNNY   61  61 100 CALM      30.09R FOG
WARRENSBURG    FOG       59  57  94 CALM      30.10R VSB 3/4
WHITEMAN AFB   CLEAR     61  60  96 CALM      30.10R
CLINTON        MOCLDY    64  57  77 S7        30.12R
SEDALIA        CLEAR     63  58  83 S9        30.12R
WARSAW         NOT AVBL
MARSHALL       CLEAR     63  63 100 CALM      30.12R
CHILLICOTHE      N/A     59  58  96 CALM      30.11R
MOBERLY        PTCLDY    63  59  88 W3        30.10  FOG
KIRKSVILLE     FOG       57  57 100 CALM      30.10S VSB 1/4

$$

MOZ041-047>049-056>058-063>065-088>090-097-051100-
...EASTERN AND SOUTHERN MISSOURI...

CITY           SKY/WX    TMP DP  RH WIND       PRES   REMARKS
ST. LOUIS INTL MOCLDY    70  54  56 S5        30.14S
SPIRIT OF STL  MOCLDY    62  55  77 S3        30.13R
COLUMBIA       MOCLDY    64  56  75 SW3       30.12S
JEFFERSON CITY PTCLDY    66  55  67 CALM      30.11S
HANNIBAL       CLOUDY    64  61  88 SE6       30.10S
ROLLA          PTCLDY    60  55  83 S9        30.13F
LEBANON        CLEAR     59  54  82 S7        30.16R
OSAGE BEACH    CLOUDY    61  54  77 S5        30.13S
SPRINGFIELD    MOCLDY    62  55  77 S7        30.14R
BRANSON        PTCLDY    59  55  88 CALM      30.16S
NEVADA         CLEAR     59  55  88 S7        30.12S
JOPLIN         CLEAR     63  54  72 SE8       30.11S
WEST PLAINS    CLEAR     54  51  90 CALM      30.18S

$$

IAZ060-094-KSZ022-034>040-054-083-096-NEZ052-066-093-051100-
...KANSAS...SOUTHEAST NEBRASKA AND IOWA...

CITY           SKY/WX    TMP DP  RH WIND       PRES   REMARKS
TOPEKA         MOCLDY    60  59  96 CALM      30.06S
MANHATTAN      CLOUDY    59  58  96 CALM      30.04F
EMPORIA        CLEAR     60  57  89 SE7       30.05F
CHANUTE        MOCLDY    60  56  86 SE7       30.08S
WICHITA        MOCLDY    64  54  69 SE8       30.03F
OMAHA          CLOUDY    58  57  97 N3        30.04R FOG
LINCOLN        CLOUDY    59  58  96 NE3       30.03S FOG
FALLS CITY     MOCLDY    60  59  96 S6        30.05R
LAMONI         CLOUDY    61  59  93 SE5       30.09S
DES MOINES     CLOUDY    63  61  93 S6        30.08S FOG

$$




USA.gov is the U.S. government's official web portal to all federal, state and local government web resources and services.